EUTELSAT 174A

Last updated on Mon Oct 14 2024 00:02:37 GMT+0000 (Coordinated Universal Time)

1 28924U 05052A 24287.54806125 .00000011 00000+0 00000+0 0 9991 2 28924 2.6582 84.0401 0006345 120.0697 189.8255 1.00271447 46194
UTC large
Height (km)
Speed (km/s)
/
Latitude / Longitude
Inclination (degrees)
Orbital Period (minutes)
Azimuth
Elevation
Range (km)
Doppler Factor

Next 0 passes for location: London (51.5072 / 0.1276)

Sorry there are no passes over London.